Location: Cabo di Oristano
(39.8500°N, 8.4333°E)
Time: 16:43:42
(UTC+00:00)

CENTAUR R/B - Pass Details

Date: 31 January 2023
Orbit: 700 x 1487 km, 63.4° (Epoch: 27 March)

Event Time Altitude Azimuth Distance (km) Brightness Sun altitude
Rises 06:03:36 0° 329° (NNW) 4,147 5.3 -6.6°
Reaches altitude 10° 06:06:32 10° 338° (NNW) 3,286 4.9 -6.1°
Maximum altitude 06:14:02 37° 44° (NE) 2,045 4.5 -4.7°
Drops below altitude 10° 06:22:15 10° 109° (ESE) 3,615 7.6 -3.2°
Sets 06:25:37 0° 117° (ESE) 4,604 8.8 -2.6°
